GFSCGP_sfc_thetae_048.txt.gz
Theta_e
308 303 300 300 302 301 301 299 298 302 305 305 304 304 307 316 317 314 315 317 319 320 322 323 322 324 325 326 327 327 329 331 332 329 325 322 324 328 332 333 333 332 329 326
304 301 304 304 304 301 301 299 298 302 303 302 302 302 305 313 315 315 315 316 317 320 322 322 325 325 324 325 327 327 327 329 332 331 327 325 324 327 329 332 332 331 329 327
301 302 305 304 302 300 301 299 298 298 302 302 301 300 302 307 314 316 317 317 318 319 321 322 323 325 327 325 327 327 327 329 332 332 329 326 326 328 328 328 327 323 321 323
302 305 303 302 301 302 298 303 301 300 299 294 301 292 299 304 307 311 315 317 318 319 321 323 324 326 326 328 328 328 329 330 332 333 330 326 322 322 327 329 328 326 326 323
300 302 302 300 301 303 299 303 302 301 299 298 298 294 298 302 301 307 313 316 318 320 321 322 325 327 329 329 329 329 329 329 331 333 332 328 324 325 328 329 327 326 324 322
303 306 305 303 304 304 304 302 301 301 299 292 296 295 296 300 302 305 309 314 317 320 322 323 325 328 329 331 331 331 329 329 331 332 332 331 329 327 326 326 325 324 321 319
300 301 304 306 302 305 303 300 292 290 291 290 298 296 298 303 305 307 308 310 314 320 322 324 324 326 329 330 331 332 330 328 330 330 330 331 330 330 328 326 325 324 319 312
294 292 301 305 302 300 301 300 293 285 288 291 296 292 299 305 307 309 311 312 313 313 320 323 324 326 329 330 332 332 328 327 329 330 330 331 331 328 328 328 326 322 315 313
294 294 302 304 305 304 300 297 302 295 294 292 295 297 303 305 305 307 310 311 312 312 316 320 323 326 328 331 332 332 331 330 329 329 330 328 327 327 327 328 324 315 313 313
300 293 301 303 306 305 302 304 295 297 287 285 291 293 295 299 301 304 306 309 313 314 314 317 319 323 327 330 332 333 332 330 330 330 330 328 327 327 327 326 318 316 316 314
302 299 298 302 300 299 300 298 299 298 296 289 287 292 302 301 304 305 307 309 311 315 317 318 320 322 324 327 329 330 330 330 330 330 330 329 327 327 326 324 321 321 319 315
303 299 294 296 302 304 303 300 301 294 291 294 293 293 304 306 306 306 307 309 313 315 317 320 322 324 324 325 326 327 328 329 330 331 330 329 328 325 323 322 321 319 312 309
302 297 292 293 297 301 299 301 301 300 298 293 292 294 304 305 305 307 307 309 312 314 317 320 322 324 325 325 326 327 328 328 329 329 327 325 321 319 316 314 311 309 307 305
304 299 295 291 294 298 296 298 300 298 294 294 295 296 301 304 304 307 308 308 308 310 316 319 321 323 324 325 327 327 326 327 325 322 320 316 315 313 311 310 307 305 305 302
303 295 298 297 298 298 297 297 298 297 298 294 297 298 301 304 306 307 307 305 307 309 314 317 320 322 324 325 325 325 325 323 322 318 315 312 310 309 309 311 309 306 303 301
303 296 298 295 298 297 295 297 298 298 298 299 299 298 305 308 308 306 305 306 308 309 311 313 315 316 315 317 320 319 318 316 317 315 312 309 309 308 306 303 302 302 299 300
300 298 295 291 296 296 290 296 298 299 301 301 297 302 306 305 305 306 306 307 307 308 308 309 309 310 311 313 315 314 313 313 312 310 307 305 303 301 301 301 300 299 301 300
300 299 298 292 290 286 297 302 303 300 302 303 303 304 305 305 306 305 307 307 305 305 305 306 307 308 309 310 311 311 311 309 308 306 304 302 302 301 301 301 300 300 299 298
304 300 294 292 290 295 295 297 299 298 299 304 303 304 304 303 303 301 305 307 305 305 305 305 306 306 307 307 307 307 306 305 304 302 302 302 302 301 301 299 299 299 297 295
300 301 299 291 289 287 297 302 305 303 295 305 304 303 303 303 298 303 302 302 302 303 303 303 304 304 304 304 305 304 303 302 301 301 301 302 302 301 300 298 295 294 296 298
292 294 293 294 293 296 302 302 303 293 297 305 305 305 304 301 305 306 303 301 302 301 301 302 303 302 303 304 304 302 301 300 301 301 301 300 299 296 294 293 296 297 297 295
293 292 292 295 292 289 302 300 298 305 306 307 306 307 305 306 304 302 301 299 299 299 299 301 300 300 302 303 302 300 299 300 300 298 295 293 294 294 294 294 294 294 294 292
293 299 298 297 298 306 305 306 307 309 308 306 307 307 307 302 301 300 299 298 298 299 299 300 299 299 300 301 300 298 297 298 297 295 294 293 293 293 293 293 293 293 292 291
299 301 298 298 303 304 306 307 306 306 307 307 308 307 305 302 301 299 298 298 298 298 298 299 297 296 295 296 295 295 294 294 293 292 292 292 291 291 291 291 289 288 287 286
301 299 300 301 304 302 305 307 308 305 305 305 306 307 304 303 300 299 297 297 297 297 297 297 295 294 292 292 291 292 293 293 291 290 289 289 288 286 286 285 285 284 284 282
301 300 299 299 306 305 308 310 310 306 304 304 305 304 304 302 299 299 297 297 296 295 295 294 293 291 289 289 288 289 291 291 289 286 285 284 285 285 284 284 284 280 279 279

GFSCGP_sfc_thetae_051.txt.gz
Theta_e
308 303 301 304 305 303 302 300 299 302 307 305 305 305 307 315 315 315 315 317 317 319 323 324 323 324 323 326 326 326 327 329 329 326 324 320 323 325 327 330 333 333 333 333
306 301 306 306 305 302 301 300 299 303 305 304 302 303 306 312 314 314 315 316 317 319 321 321 323 324 324 325 326 327 327 327 330 329 326 324 323 324 325 329 333 333 333 331
302 304 307 304 303 300 300 300 299 300 303 304 302 299 303 307 313 315 315 317 317 319 320 321 320 322 325 325 326 327 328 329 331 331 329 326 324 325 324 326 329 331 332 331
304 307 304 303 302 302 297 304 302 301 299 294 303 291 300 305 307 312 314 315 316 317 321 322 323 323 323 325 328 328 328 329 329 331 329 326 322 319 323 325 328 330 331 328
301 303 302 301 302 304 300 305 302 302 300 299 298 296 299 304 303 307 313 315 316 318 320 322 323 325 326 327 329 330 328 328 329 331 331 329 325 324 325 328 329 330 330 328
303 309 306 305 306 305 306 303 302 302 300 292 298 296 296 300 303 306 310 314 317 318 320 321 325 326 327 329 330 331 328 328 329 330 331 331 329 326 323 328 328 329 329 328
301 303 306 307 303 306 304 300 292 291 291 291 299 297 298 303 307 307 308 311 315 318 319 321 322 324 326 329 330 331 328 326 328 329 330 331 331 330 327 326 329 327 325 325
295 294 302 306 303 302 301 300 294 287 289 292 299 293 298 307 308 309 310 312 314 316 320 321 322 323 326 330 331 330 330 329 328 326 329 332 332 333 331 331 329 328 327 327
296 296 305 305 306 305 302 297 304 296 298 293 297 299 305 307 305 307 309 311 314 316 317 319 323 325 326 330 333 334 331 331 330 328 327 327 333 334 332 332 333 330 329 320
301 295 302 303 306 306 303 306 296 298 288 287 293 295 296 301 302 304 306 309 313 316 316 318 322 324 327 330 334 335 335 332 332 331 331 331 332 332 331 331 329 328 323 319
304 300 299 303 301 300 301 300 301 300 297 290 289 294 304 303 304 304 307 309 310 315 317 318 320 323 325 329 331 334 335 334 333 333 333 332 330 330 328 327 326 323 322 320
304 301 296 298 304 306 304 301 302 295 294 297 295 295 306 306 307 307 308 309 311 313 318 321 322 322 324 326 329 331 333 332 332 333 333 331 329 327 325 324 322 321 320 315
303 298 293 295 300 304 301 303 303 303 301 295 292 294 306 307 306 308 308 309 311 314 315 320 323 324 324 326 327 329 330 330 331 332 331 328 323 322 319 315 313 312 310 308
304 300 296 292 296 300 297 299 301 300 296 295 295 297 302 304 305 307 309 310 312 314 315 317 320 324 325 326 327 328 329 330 330 329 327 322 319 317 315 313 310 308 305 303
304 297 298 298 300 300 299 299 299 298 299 295 298 298 302 304 306 308 310 310 309 310 313 316 318 322 324 326 328 329 326 326 324 319 316 313 314 314 312 310 309 307 305 303
305 297 299 296 299 299 296 299 299 299 299 299 299 299 306 307 308 308 309 308 309 310 312 316 320 323 324 326 326 324 323 323 323 319 316 315 314 314 311 309 308 307 305 305
300 299 296 292 297 297 293 297 298 299 301 300 296 302 306 305 306 307 308 309 310 312 314 316 318 319 319 321 321 319 318 318 316 314 312 310 308 307 305 305 304 304 304 304
300 299 298 294 292 287 297 304 303 300 301 303 303 304 306 306 308 309 310 310 311 312 313 313 314 314 316 317 316 316 315 313 311 309 307 307 306 305 305 305 303 303 303 302
304 301 296 292 292 295 298 301 301 299 299 304 303 305 306 307 307 307 309 312 312 311 311 311 312 313 313 313 313 312 310 309 308 306 306 305 305 304 304 303 302 301 301 297
301 303 299 295 289 287 297 303 307 306 296 306 306 306 305 305 301 304 309 311 310 310 310 309 310 311 310 310 311 309 307 306 305 305 305 305 305 303 301 300 298 296 299 299
295 297 294 295 293 295 302 304 307 295 298 307 307 306 306 304 306 310 310 308 309 308 308 308 309 308 308 309 309 306 305 304 305 305 304 302 301 300 299 297 298 299 297 297
294 293 293 296 293 290 306 304 299 306 311 310 309 309 308 309 309 308 307 306 306 306 306 307 307 306 307 308 307 304 303 304 304 302 300 299 298 297 298 297 296 295 295 294
293 299 297 298 298 307 307 308 310 311 310 311 311 310 310 309 307 306 305 305 305 304 305 306 305 305 306 306 306 303 302 302 300 299 298 297 295 295 295 294 294 294 293 292
300 303 301 300 304 306 308 309 311 312 312 312 313 311 311 309 308 306 305 304 304 305 304 305 304 303 302 303 303 301 300 300 298 296 295 294 294 293 293 292 290 289 288 287
300 301 300 300 302 305 307 309 311 311 311 311 310 310 310 309 306 305 304 304 304 304 304 303 302 300 299 299 298 297 297 297 294 293 292 291 290 289 288 287 286 286 283 282
301 300 298 298 303 306 307 310 312 311 311 310 309 308 310 309 306 305 303 304 303 302 302 301 299 297 295 295 295 295 295 294 292 289 288 288 288 287 287 286 284 280 281 280

GFSCGP_sfc_thetae_054.txt.gz
Theta_e
306 300 296 300 303 304 302 299 297 302 306 304 304 305 307 309 312 312 314 313 315 317 319 320 319 319 318 318 319 318 318 319 317 320 319 319 320 321 321 323 328 330 330 330
302 298 303 306 306 303 301 298 298 302 305 303 301 301 308 311 311 313 313 314 314 317 318 319 319 319 319 318 319 320 320 317 319 323 323 320 320 323 323 324 328 330 330 330
299 302 307 304 303 300 299 297 298 299 302 304 301 298 301 308 311 313 314 316 316 317 318 318 319 319 320 321 322 323 323 322 323 325 325 323 321 321 321 322 326 328 328 328
302 306 304 303 301 302 296 302 301 301 299 293 302 291 299 303 306 310 311 314 315 317 320 320 319 320 321 323 325 325 325 325 326 327 326 323 319 316 319 321 325 327 329 328
300 302 302 300 301 304 300 305 302 300 297 297 297 294 297 303 302 306 311 312 315 317 319 319 319 321 323 324 324 325 326 326 326 328 328 325 321 320 320 323 323 327 328 328
303 308 305 303 305 305 306 302 302 301 298 291 296 295 295 299 302 305 310 313 314 315 319 321 322 322 322 323 325 325 326 325 326 329 329 327 324 322 320 322 323 326 326 325
300 301 305 306 302 305 303 299 291 289 289 289 298 296 298 303 306 307 308 311 314 316 317 319 321 322 322 322 323 325 326 325 326 326 328 327 327 327 323 323 324 324 324 324
294 292 300 305 303 300 301 299 293 285 287 291 298 293 297 306 308 309 310 312 314 316 317 318 320 323 323 325 325 325 325 325 326 326 328 328 328 328 326 325 324 325 325 324
294 294 303 305 305 304 301 296 302 296 297 293 295 297 303 306 306 306 307 309 311 313 317 318 320 321 324 325 326 327 327 325 326 326 327 326 327 326 326 326 327 325 325 324
300 294 302 304 305 305 301 305 295 296 287 286 292 294 295 301 302 305 306 309 312 316 317 316 319 321 324 327 328 330 329 328 328 327 327 326 326 325 325 323 328 327 323 318
302 299 298 302 299 298 299 297 301 300 296 289 288 293 303 303 305 304 308 309 311 315 317 317 319 322 324 326 328 331 330 330 329 327 327 326 324 325 327 328 325 326 321 319
303 300 294 297 303 304 302 300 300 294 292 297 295 293 306 308 307 308 308 309 314 314 317 319 320 321 322 325 328 331 331 331 330 329 328 328 329 328 326 324 322 320 318 317
302 297 291 293 299 302 299 301 301 301 300 295 290 293 306 307 307 308 308 309 310 313 316 319 321 321 322 324 326 330 331 331 329 327 327 327 325 320 317 315 313 312 310 307
303 299 296 290 294 299 297 299 301 300 294 295 296 298 303 304 305 306 307 309 309 311 313 317 320 322 323 325 326 328 329 330 327 323 322 320 317 314 312 310 308 306 304 303
304 296 298 298 299 300 299 298 299 298 298 295 298 298 301 304 305 307 309 310 309 309 312 314 317 321 324 325 326 327 326 323 321 319 317 314 313 312 310 308 305 304 303 302
303 296 298 296 298 298 296 299 299 299 298 298 299 299 306 307 307 308 308 309 308 309 309 312 316 320 322 324 325 324 322 320 319 316 314 314 313 312 310 307 305 303 302 300
300 299 296 291 297 296 290 297 298 299 301 299 295 301 306 304 305 306 307 308 308 309 310 313 316 320 323 324 324 322 321 321 317 314 314 313 310 307 306 305 304 302 301 301
299 298 297 292 292 284 296 303 302 299 300 302 301 302 304 305 307 308 310 310 310 311 313 316 319 320 321 321 320 318 317 314 312 310 308 307 306 304 304 303 302 301 300 300
301 298 294 290 289 294 297 300 299 298 297 303 302 303 305 306 308 309 310 312 313 314 315 315 316 317 317 316 315 314 311 310 308 306 305 305 304 303 302 301 300 300 299 297
300 299 294 295 287 284 297 302 305 304 293 305 305 305 305 306 300 304 310 312 313 313 313 312 313 313 312 312 312 309 307 306 305 305 304 305 304 303 299 299 298 297 298 299
291 290 290 292 290 294 301 303 305 292 295 307 307 307 308 305 307 310 311 311 312 311 310 311 311 309 309 310 309 306 305 304 304 305 304 303 301 300 299 297 297 297 296 295
290 288 290 293 290 287 305 304 297 302 307 311 310 311 312 310 311 310 310 309 309 308 308 309 308 307 308 308 307 304 303 304 304 302 301 300 299 298 298 297 294 294 293 291
290 294 293 296 296 306 306 306 309 310 310 311 311 311 312 311 309 309 307 307 307 307 306 307 306 306 307 307 306 303 303 303 301 299 297 297 297 296 295 293 292 291 291 287
299 302 298 298 300 300 306 309 309 310 310 311 312 313 314 310 309 307 307 306 306 305 305 306 305 304 304 305 305 303 302 301 299 297 295 294 292 292 292 290 288 287 284 283
298 300 299 299 302 302 303 305 309 310 312 312 312 311 310 311 309 307 306 305 305 305 305 305 303 303 302 303 301 301 300 299 295 294 293 291 290 288 286 283 284 282 280 280
300 297 295 297 304 304 306 308 312 307 308 311 310 310 310 311 309 308 305 305 305 304 304 302 302 301 299 298 297 297 297 295 293 290 288 286 286 285 285 283 281 282 280 280

GFSCGP_sfc_thetae_060.txt.gz
Theta_e
298 292 290 292 293 295 294 292 291 294 300 300 299 298 300 304 306 307 307 309 310 309 311 311 311 312 313 315 313 314 312 313 315 315 314 313 313 316 318 318 319 321 322 324
294 291 296 298 297 295 294 292 293 295 301 297 299 299 300 302 306 308 308 310 310 310 309 310 310 310 311 312 313 313 313 313 315 315 314 313 315 315 315 318 318 318 323 324
293 295 299 298 296 294 294 292 293 293 295 296 296 293 299 303 306 307 310 312 311 311 309 309 310 309 310 311 312 313 312 312 313 313 312 311 312 313 313 314 315 318 321 323
294 299 298 296 295 296 291 298 297 295 291 287 293 284 294 300 302 305 308 310 310 311 312 310 310 309 310 311 313 313 313 312 313 312 311 311 311 310 312 313 314 316 322 323
295 297 296 295 296 299 295 300 298 297 291 288 289 286 289 300 300 302 305 308 310 311 312 311 311 311 311 312 312 312 312 312 312 311 312 312 311 312 313 315 316 316 319 323
297 302 299 299 301 300 302 298 297 294 291 284 289 288 287 295 300 303 306 308 310 311 312 312 312 312 311 312 313 311 311 313 311 312 313 314 313 314 313 313 315 316 318 320
295 297 300 301 296 299 298 291 284 283 282 282 293 290 291 296 299 306 307 307 310 312 312 311 311 311 311 311 313 313 312 313 312 312 313 316 316 316 317 314 314 315 316 319
287 286 296 301 297 295 294 293 285 281 280 283 293 288 293 300 301 304 309 310 310 311 313 313 312 312 312 312 312 313 313 313 313 312 312 314 318 319 320 318 316 315 317 320
289 289 299 300 301 299 295 290 296 289 289 284 288 293 298 301 301 300 302 308 308 310 313 313 314 313 313 314 314 315 315 315 316 314 314 315 318 319 321 322 318 317 319 320
293 288 296 299 300 300 298 299 289 289 282 281 286 287 289 296 298 300 299 299 305 309 312 314 315 315 316 316 316 317 318 318 318 319 319 319 320 321 322 321 319 320 319 318
295 292 292 296 294 293 294 292 294 293 289 282 281 285 295 297 299 298 300 301 300 305 310 314 315 316 317 318 317 318 319 319 319 321 321 320 321 322 321 321 319 320 318 315
297 292 287 291 297 299 298 295 294 287 287 288 284 286 299 298 300 301 300 301 305 306 307 311 314 316 316 317 318 318 319 319 320 321 321 321 321 322 321 321 320 319 316 315
298 291 285 287 293 297 294 295 297 295 293 288 284 288 300 299 300 301 300 300 301 306 306 307 308 310 315 317 317 318 319 319 321 323 322 322 322 322 323 321 322 322 315 313
300 295 290 285 288 293 291 294 296 294 286 288 289 293 297 300 300 301 301 301 300 305 308 308 309 311 313 315 318 319 319 320 322 323 322 321 321 321 320 317 314 313 312 308
299 291 293 294 294 295 295 295 295 293 293 289 291 294 298 300 301 302 301 302 302 302 307 309 310 310 314 317 318 319 321 322 323 322 322 320 319 315 312 310 308 306 305 304
298 290 293 290 294 294 293 295 296 296 294 294 294 294 302 302 302 301 302 303 302 301 306 310 311 312 317 317 315 314 315 320 322 320 317 313 311 309 307 305 305 303 302 302
292 291 288 284 291 292 286 292 295 295 297 295 291 296 302 301 302 302 301 303 302 302 302 309 311 314 318 316 315 313 313 315 315 313 312 310 308 306 304 304 302 300 299 299
291 289 289 284 285 281 292 298 297 295 297 298 296 297 301 300 303 301 303 304 301 302 301 305 313 314 317 316 314 312 312 312 311 311 309 308 306 303 302 301 300 300 299 296
298 292 285 284 284 289 293 295 295 294 294 299 298 298 298 299 298 297 301 302 302 302 303 307 312 314 316 315 313 311 310 310 308 307 306 306 304 302 301 299 297 295 294 294
293 293 287 284 281 279 290 297 300 299 288 298 299 299 299 299 290 294 301 304 305 307 310 312 310 311 311 311 311 309 306 305 304 304 303 303 303 300 298 296 295 295 295 296
283 282 283 284 283 286 295 300 301 289 289 299 302 301 300 297 297 300 303 305 306 307 308 308 311 310 307 307 307 304 303 302 303 303 301 299 298 297 297 296 296 295 292 290
284 282 282 285 283 280 300 300 292 295 301 303 303 301 299 300 300 301 305 305 305 305 305 307 306 305 305 305 304 301 300 301 301 300 298 297 297 297 296 294 294 290 288 285
284 289 286 288 287 298 300 301 304 303 301 303 302 304 304 301 300 302 302 303 304 304 302 304 303 300 300 302 302 298 297 298 298 297 296 295 295 294 293 291 288 287 286 284
291 296 292 292 296 298 299 302 304 304 303 305 304 304 304 303 303 301 301 301 301 301 301 300 300 299 297 299 299 298 298 297 296 294 293 293 290 286 286 285 285 284 281 282
291 295 293 292 296 298 299 301 302 302 305 305 305 303 302 303 303 303 301 300 300 300 300 300 299 297 296 297 297 297 297 296 294 292 287 285 284 283 280 279 279 280 280 281
293 292 290 289 296 295 297 300 304 301 302 303 303 303 303 302 304 302 301 300 301 299 299 297 296 295 294 294 294 294 294 292 289 285 283 282 281 280 278 278 278 282 281 282

GFSCGP_sfc_thetae_066.txt.gz
Theta_e
297 291 288 290 291 291 290 288 286 289 293 292 293 294 297 299 302 303 305 306 310 308 308 308 312 314 313 316 316 316 316 316 316 316 315 315 315 316 317 318 320 320 320 320
291 290 295 295 294 293 291 288 287 291 294 293 292 292 295 298 302 304 304 306 307 307 306 307 308 312 313 314 315 315 315 314 315 316 317 316 316 315 316 317 318 320 321 322
291 293 297 294 292 291 290 288 287 288 290 291 290 290 293 298 301 303 304 307 310 309 307 308 307 309 312 312 314 313 313 313 313 314 314 313 316 313 312 313 315 317 319 321
292 297 294 292 291 292 287 292 292 290 288 284 290 282 289 292 296 300 303 305 308 309 309 308 308 307 309 311 313 313 312 311 311 311 310 309 313 313 313 313 314 315 317 318
290 292 293 291 292 294 291 295 292 291 288 286 286 283 287 294 293 297 301 304 307 309 309 307 307 307 309 311 311 313 313 310 312 311 310 310 308 314 312 312 311 312 314 316
293 297 295 295 297 296 297 294 292 291 288 281 287 285 284 287 295 297 300 303 306 308 310 310 309 308 307 308 310 311 311 311 311 311 310 309 309 309 309 306 307 308 309 311
291 293 296 297 293 295 293 290 282 281 281 281 288 284 289 293 295 298 299 301 305 308 309 309 307 307 307 306 308 310 310 309 310 310 311 309 309 309 309 309 307 307 308 309
284 283 293 297 295 292 292 290 282 279 279 282 288 284 289 296 297 298 299 302 304 307 309 310 309 308 308 308 308 309 309 310 310 310 310 310 310 310 310 309 310 308 308 309
286 286 295 297 299 298 291 287 292 285 284 282 285 290 295 297 297 297 298 299 300 305 308 310 311 310 309 309 308 309 309 310 311 310 310 310 310 309 310 309 310 309 309 311
291 285 294 297 297 296 294 296 287 285 280 279 282 284 287 291 295 297 297 297 301 304 307 309 311 311 311 310 310 309 310 310 311 311 310 310 309 309 310 310 310 313 313 312
292 289 289 293 290 290 291 290 289 289 285 280 279 283 293 294 296 296 298 298 299 303 306 309 311 313 312 312 310 309 310 310 310 312 312 310 309 309 311 312 312 314 316 317
296 289 283 288 295 296 293 291 292 284 283 284 283 286 296 296 297 297 297 298 297 303 306 307 310 311 311 311 311 310 310 310 310 312 313 311 310 311 310 311 314 315 315 318
297 291 283 285 290 293 290 292 292 292 288 285 283 285 298 297 297 298 297 298 298 299 300 304 308 311 311 311 312 311 311 311 312 311 312 312 311 311 311 312 313 315 316 317
300 293 290 284 287 291 289 291 292 291 285 285 287 289 293 297 297 298 299 298 298 298 300 301 305 310 312 313 312 312 312 312 312 313 312 312 312 312 312 313 314 316 318 319
295 287 291 292 292 292 290 289 290 290 289 286 287 289 293 296 298 299 300 299 300 299 299 300 302 307 310 311 313 313 313 313 313 313 313 313 315 315 315 315 316 315 318 319
295 286 289 286 291 291 288 290 291 292 291 290 290 290 296 298 299 298 299 300 299 300 301 301 304 304 307 311 312 313 313 314 314 314 314 316 316 317 316 317 318 318 317 317
290 287 284 281 288 288 282 288 288 289 292 292 288 292 297 296 298 298 299 300 300 301 302 301 303 307 307 308 311 312 313 314 314 315 315 316 316 317 317 318 316 312 312 309
288 287 284 279 281 276 285 295 293 292 292 292 292 295 296 297 299 300 300 300 300 301 301 302 302 305 308 310 311 311 312 312 314 314 315 316 316 316 311 309 308 306 303 304
292 287 281 277 278 283 286 289 291 290 288 293 294 296 297 299 296 294 298 300 302 302 303 303 302 303 307 311 310 313 313 313 312 312 313 314 314 309 307 305 303 301 300 299
291 290 286 282 276 273 282 293 299 298 284 296 298 298 297 297 292 297 300 299 299 299 299 299 300 306 308 308 312 312 313 313 314 313 311 310 309 306 304 301 299 299 299 296
285 285 283 283 281 282 290 295 300 286 283 295 298 298 298 295 295 298 299 300 299 303 303 305 306 307 308 310 313 312 312 311 310 309 307 305 304 301 300 297 297 296 294 291
283 281 281 282 281 277 295 294 289 294 295 295 297 299 298 300 299 300 300 301 303 304 305 306 305 305 308 309 310 308 307 305 304 303 302 301 298 297 297 295 293 291 288 286
281 285 282 284 282 291 295 294 298 297 296 297 300 301 300 299 299 299 300 300 301 303 303 303 302 301 303 304 304 301 300 301 301 299 297 296 295 294 293 291 289 287 287 285
285 289 286 286 289 292 293 295 298 299 299 301 303 302 302 299 300 300 300 300 300 301 300 301 300 298 297 299 300 299 298 299 299 296 293 293 291 290 290 290 289 286 285 284
285 287 286 287 290 293 293 295 297 298 301 303 305 303 301 301 301 301 301 300 299 299 298 298 297 295 295 297 297 299 298 297 293 291 289 287 286 285 283 283 284 285 285 286
290 286 284 284 291 291 292 295 297 296 297 298 300 301 298 295 295 299 299 300 299 296 296 294 293 294 293 294 294 295 294 292 289 286 285 284 284 283 283 282 281 283 283 284